Casement, Ireland

8:17 AM IST on June 23, 2017 (GMT +0100)
Casement Air Base

Weather History for EIME - July, 2013

Change the Weather History Date:

Friday, July 12, 2013

  Actual Average (EIDW) Record (EIDW)
Temperature  
Mean Temperature 67 °F -  
Max Temperature 83 °F 64 °F 78 °F (2013)
Min Temperature 51 °F 50 °F 43 °F (2012)
Cooling Degree Days 2    
Growing Degree Days 17 (Base 50)    
Moisture  
Dew Point 56 °F    
Average Humidity 57    
Maximum Humidity 94    
Minimum Humidity 28    
Precipitation  
Precipitation 0.00 in - - ()
Sea Level Pressure  
Sea Level Pressure 30.28 in    
Wind  
Wind Speed 3 mph ()    
Max Wind Speed 7 mph    
Max Gust Speed -    
Visibility 17.1 miles    
Events      
Averages and records for this station are not official NWS values.
T = Trace of Precipitation, MM = Missing Value Source: Averaged Metar Reports

Daily Weather History Graph

Daily Weather History Graph

Search for Another Location

Airport or City:

Trip Planner

Search our weather history database for the weather conditions in past years. The results will help you decide how hot, cold, wet, or windy it might be!

Date:

Astronomy

Jul. 12, 2013 Rise Set
Actual Time 5:13 AM IST 9:48 PM IST
Civil Twilight 4:24 AM IST 10:37 PM IST
Nautical Twilight 3:05 AM IST 11:54 PM IST
Astronomical Twilight 2:03 AM IST 12:59 AM IST
Moon 9:59 AM IST (7/12) 11:04 PM IST (7/12)
Length of Visible Light 18h 13m
Length of Day
16h 35m
Waxing Crescent, 15% of the Moon is Illuminated
Jul 12
Waxing Crescent
Jul 16
First Quarter
Jul 22
Full
Jul 29
Last Quarter
Aug 6
New

Hourly Weather History & Observations

Time (IST) Temp. Dew Point Humidity Pressure Visibility Wind Dir Wind Speed Gust Speed Precip Events Conditions
1:00 AM 53 °F 50 °F 87% 30.29 in 19 mi SW 2.2 mph - -   Clear
2:00 AM 57 °F 53 °F 81% 30.29 in 10 mi NE 2.2 mph - -  
3:00 AM 56 °F 51 °F 80% 30.29 in 12 mi SW 2.2 mph - -  
4:00 AM 68 °F 60 °F 68% 30.30 in 19 mi NE 2.2 mph - -   Clear
5:00 AM 53 °F 50 °F 87% 30.28 in 12 mi South 4.5 mph - -   Clear
6:00 AM 53 °F 50 °F 87% 30.29 in 19 mi SW 2.2 mph - -   Clear
7:00 AM 58 °F 57 °F 94% 30.29 in 19 mi Calm Calm - -  
8:00 AM 67 °F 61 °F 74% 30.29 in 19 mi North 2.2 mph - -   Clear
9:00 AM 68 °F 60 °F 68% 30.30 in 19 mi NE 2.2 mph - -   Clear
10:00 AM 71 °F 61 °F 63% 30.29 in 19 mi West 2.2 mph - -  
11:00 AM 74 °F 55 °F 41% 30.29 in 22 mi WSW 6.7 mph - -  
12:00 PM 77 °F 54 °F 34% 30.28 in 22 mi West 6.7 mph - -  
1:00 PM 78 °F 56 °F 35% 30.28 in 22 mi WSW 6.7 mph - -   Clear
2:00 PM 80 °F 56 °F 33% 30.27 in 22 mi West 3.5 mph - -   Clear
3:00 PM 81 °F 56 °F 31% 30.27 in 22 mi West 6.7 mph - -   Clear
4:00 PM 82 °F 54 °F 28% 30.26 in 22 mi WNW 6.7 mph - -   Clear
5:00 PM 82 °F 56 °F 30% 30.25 in 22 mi West 6.7 mph - -   Clear
6:00 PM 81 °F 58 °F 34% 30.25 in 22 mi North 2.3 mph - -   Clear
7:00 PM 80 °F 59 °F 38% 30.24 in 22 mi East 6.7 mph - -   Clear
8:00 PM 78 °F 59 °F 42% 30.24 in 28 mi East 6.7 mph - -   Clear
10:00 PM 71 °F 61 °F 62% 30.26 in 19 mi SSE 2.2 mph - -   Clear
11:00 PM 69 °F 60 °F 64% 30.27 in 19 mi South 2.3 mph - -   Clear